Погода в Фули

Вьетнам     20°32′28″N   105°55′01″E
темп.,
°C
ветер,
м/с
пор.,
м/с
влажн.,
%
обл.,
%
осадки,
мм/ч
давл.,
гПа
погр.,
м
11 августа, чт
чт1101:00+24зюз51098100 23.7 999500
04:00+23юз51198100 30.4 997528
07:00+23ююз41099100 71.2 999547
10:00+24юз51198100 43.6 1000662
13:00+24ююз3997100 63.7 1000452
16:00+25ю2395100 1.4 1000160
19:00+24ю1195100 1.6 100219
22:00+24ссв0094100 0.8 100511
12 августа, пт
пт1201:00+24с0194100 2.2 100422
04:00+24с1197100 2.1 100439
07:00+24с1198100 3.7 100557
10:00+25с1194100 2.1 1006189
13:00+26ссв1291100 2.8 1005328
16:00+25ссв2394100 0.5 1004246
19:00+24ссз0197100 0.8 100516
22:00+24зсз1197100 0.7 100721
13 августа, сб
сб1301:00+24зсз1299100 4.3 100566
04:00+24юз1199100 7.6 100447
07:00+24юз119684 8.4 100694
10:00+28юз128251 0.1 1006621
13:00+31ююз2268100 0.1 10031187
16:00+31юв337116 0.1 1002816
19:00+27ююв379120 0.9 1003190
22:00+26ююв269284 1.6 1005172
14 августа, вс
вс1401:00+26ю229199 1.6 100348
04:00+26ю1191100 0.0 100211
07:00+26зсз1194100 2.7 100341
10:00+27в1189100 2.3 1005283
13:00+29в1184100 2.5 1004438
16:00+29в2484100 0.3 1003483
19:00+26в3592100 2.8 1004141
22:00+26юв1192100 0.6 100527
15 августа, пн
пн1501:00+24ююз4996100 4.7 1004363
04:00+24ю249898 3.2 1003216
07:00+24юв1298100 5.1 1004161
10:00+25ююз1294100 2.8 1005248
13:00+26юв2293100 4.1 1004245
16:00+28юв238270 0.8 1003610
19:00+25ююв25928 2.3 100498
22:00+25св119319 1.1 100613